Tracking 19634 objects as of 23-May-2019
HD Live streaming from Space Station
objects crossing your sky now

COSMOS 332

Track COSMOS 332 now!
10-day predictions
COSMOS 332 is classified as:


NORAD ID: 4369
Int'l Code: 1970-028A
Perigee: 722.9 km
Apogee: 733.0 km
Inclination: 74.0 °
Period: 99.2 minutes
Semi major axis: 7098 km
RCS: 3.6339 m2 (large)
Launch date: April 11, 1970
Source: Commonwealth of Independent States (former USSR) (CIS)
Launch site: PLESETSK MISSILE AND SPACE COMPLEX (PKMTR)
aabbcc
Your satellite tracking list
Your tracking list is empty




NASA's NSSDC Master Catalog

Two Line Element Set (TLE):
1  4369U 70028A   19142.16404165  .00000009  00000-0  92602-5 0  9996
2  4369  74.0370  90.7623 0007103 245.2101 114.8321 14.51476160593628
Source of the keplerian elements: AFSPC